This is the latest recevied weather packets stored in our database for station/object KD7KCN-5. If no packets are shown the sender has not sent any weather packets the latest 10 day(s).
| Time | Temp. | Humidity | Pressure | Rain* | Wind** | Luminosity | Snow |
|---|---|---|---|---|---|---|---|
| 1777984909 | 6.11° C | 59% | 1009.2 hPa | 0 mm | - | 5 W/m² | - |
| 1777984308 | 6.11° C | 58% | 1009.2 hPa | 0 mm | - | 0 W/m² | - |
| 1777983708 | 6.67° C | 57% | 1009.2 hPa | 0 mm | - | 0 W/m² | - |
| 1777983108 | 6.67° C | 57% | 1009.2 hPa | 0 mm | - | 0 W/m² | - |
| 1777982509 | 6.11° C | 58% | 1009.1 hPa | 0 mm | - | 0 W/m² | - |
| 1777981908 | 6.67° C | 57% | 1009 hPa | 0 mm | - | 0 W/m² | - |
| 1777981308 | 6.11° C | 58% | 1009 hPa | 0 mm | - | 0 W/m² | - |
| 1777980708 | 6.67° C | 56% | 1009.2 hPa | 0 mm | - | 0 W/m² | - |
| 1777980108 | 6.67° C | 56% | 1009.2 hPa | 0 mm | - | 0 W/m² | - |
| 1777979509 | 6.11° C | 57% | 1009.3 hPa | 0 mm | - | 0 W/m² | - |
| 1777978908 | 6.11° C | 57% | 1009.1 hPa | 0 mm | - | 0 W/m² | - |
| 1777978309 | 6.11° C | 57% | 1009.1 hPa | 0 mm | - | 0 W/m² | - |
| 1777977709 | 6.11° C | 57% | 1008.9 hPa | 0 mm | - | 0 W/m² | - |
| 1777977109 | 6.11° C | 57% | 1008.8 hPa | 0 mm | - | 0 W/m² | - |
| 1777976509 | 6.67° C | 56% | 1008.9 hPa | 0 mm | - | 0 W/m² | - |
| 1777975909 | 7.22° C | 55% | 1008.9 hPa | 0 mm | - | 0 W/m² | - |
| 1777975309 | 7.22° C | 54% | 1008.9 hPa | 0 mm | - | 0 W/m² | - |
| 1777974709 | 6.67° C | 55% | 1008.8 hPa | 0 mm | - | 0 W/m² | - |
| 1777974110 | 7.22° C | 54% | 1009.7 hPa | 0 mm | - | 0 W/m² | - |
| 1777973509 | 7.22° C | 54% | 1009.6 hPa | 0 mm | - | 0 W/m² | - |
| 1777972909 | 7.22° C | 53% | 1009.6 hPa | 0 mm | - | 0 W/m² | - |
| 1777972309 | 7.78° C | 52% | 1009.8 hPa | 0 mm | - | 0 W/m² | - |
| 1777971709 | 8.33° C | 51% | 1009.7 hPa | 0 mm | - | 0 W/m² | - |
| 1777971109 | 8.89° C | 50% | 1009.9 hPa | 0 mm | - | 0 W/m² | - |
| 1777970509 | 8.89° C | 50% | 1009.9 hPa | 0 mm | - | 0 W/m² | - |
* Rain latest hour (hover to see other rain measurements)
** Current wind speed in m/s (hover to see current wind gust speed)